virtualACA

Welcome To Calgary International Airport CYYC

Hub Roster

Pilot Domicile Rank
Ethan Title - ACA1641CanadaChief Pilot
Graham Dawson - ACA2317CanadaChief Pilot
Roger Godden - ACA2339CanadaChief Pilot
Nemeth Istvan - ACA3257HungaryNew Hire
Burt Dykeman - ACA3267CanadaSecond Officer
Ross Mayl - ACA3271United KingdomNew Hire
Rashaido Brown - ACA3288JamaicaSecond Officer
Pam Magee - ACA3298CanadaNew Hire

Current Vatsim Weather


CYYC 131324Z 08004KT 1 1/4SM -SN OVC004 M13/M14 A2991 RMK SN3SC5 SLP208
Calgary International Airport